timestamp,surface_pressure_avg,surface_temp_avg,battery_voltage,lat,long
2021-12-05 00:09:00+00:00,382.6462,8.5,12.65,47.84626,-54.09684
2021-12-05 00:19:00+00:00,384.0129,8.45,12.65,47.84626,-54.09684
2021-12-05 00:29:00+00:00,380.5629,8.49,12.65,47.84626,-54.09684
2021-12-05 00:39:00+00:00,377.9462,8.48,12.65,47.84626,-54.09684
2021-12-05 00:49:00+00:00,378.0646,8.4,12.65,47.84626,-54.09684
2021-12-05 00:59:00+00:00,369.6447,8.34,12.65,47.84626,-54.09684
2021-12-05 01:09:00+00:00,365.7579,8.36,12.65,47.84626,-54.09684
2021-12-05 01:19:00+00:00,366.1595,8.3,12.65,47.84626,-54.09684
2021-12-05 01:29:00+00:00,357.8395,8.2,12.65,47.84626,-54.09684
2021-12-05 01:39:00+00:00,349.9463,8.2,12.65,47.84626,-54.09684
2021-12-05 01:49:00+00:00,346.9247,8.2,12.65,47.84626,-54.09684
2021-12-05 01:59:00+00:00,341.6646,8.2,12.65,47.84626,-54.09684
2021-12-05 02:09:00+00:00,333.2446,8.2,12.65,47.84626,-54.09684
2021-12-05 02:19:01+00:00,322.3697,8.19,12.65,47.84626,-54.09684
2021-12-05 02:29:01+00:00,318.423,8.18,12.65,47.84626,-54.09684
2021-12-05 02:39:01+00:00,310.103,8.1,12.65,47.84626,-54.09684
2021-12-05 02:49:01+00:00,300.0698,8.1,12.65,47.84626,-54.09684
2021-12-05 02:59:01+00:00,289.6347,8.0,12.65,47.84626,-54.09684
2021-12-05 03:09:01+00:00,283.7948,8.0,12.65,47.84626,-54.09684
2021-12-05 03:19:00+00:00,273.9581,7.92,12.65,47.84626,-54.09684
2021-12-05 03:29:00+00:00,263.6597,7.8,12.65,47.84626,-54.09684
2021-12-05 03:39:00+00:00,256.8881,7.6,12.65,47.84626,-54.09684
2021-12-05 03:49:00+00:00,249.1647,7.4,12.65,47.84626,-54.09684
2021-12-05 03:59:00+00:00,237.5197,7.4,12.65,47.84626,-54.09684
2021-12-05 04:09:00+00:00,228.8514,7.13,12.65,47.84626,-54.09684
2021-12-05 04:19:01+00:00,219.8714,6.59,12.65,47.84626,-54.09684
2021-12-05 04:29:01+00:00,210.0114,6.2,12.65,47.84626,-54.09684
2021-12-05 04:39:01+00:00,203.9231,6.2,12.65,47.84626,-54.09684
2021-12-05 04:49:01+00:00,198.6648,6.15,12.65,47.84626,-54.09684
2021-12-05 04:59:01+00:00,193.3798,6.41,12.65,47.84626,-54.09684
2021-12-05 05:09:01+00:00,192.5965,6.78,12.65,47.84626,-54.09684
2021-12-05 05:19:01+00:00,195.3398,6.5,12.65,47.84626,-54.09684
2021-12-05 05:29:01+00:00,197.3898,6.63,12.65,47.84626,-54.09684
2021-12-05 05:39:01+00:00,200.0064,7.32,12.65,47.84626,-54.09684
2021-12-05 05:49:01+00:00,201.3048,7.56,12.65,47.84626,-54.09684
2021-12-05 05:59:01+00:00,204.6231,7.2,12.65,47.84626,-54.09684
2021-12-05 06:09:01+00:00,212.8431,7.76,12.65,47.84626,-54.09684
2021-12-05 06:19:00+00:00,215.2131,7.6,12.65,47.84626,-54.09684
2021-12-05 06:29:00+00:00,214.1831,7.91,12.65,47.84626,-54.09684
2021-12-05 06:39:00+00:00,217.7098,7.88,12.65,47.84626,-54.09684
2021-12-05 06:49:00+00:00,218.9865,7.7,12.65,47.84626,-54.09684
2021-12-05 06:59:00+00:00,222.4348,7.68,12.65,47.84626,-54.09684
2021-12-05 07:09:00+00:00,233.9115,7.83,12.65,47.84626,-54.09684
2021-12-05 07:19:00+00:00,236.8014,7.96,12.65,47.84626,-54.09684
2021-12-05 07:29:00+00:00,233.7581,8.1,12.65,47.84626,-54.09684
2021-12-05 07:39:00+00:00,238.6298,7.86,12.65,47.84626,-54.09684
2021-12-05 07:49:00+00:00,248.1097,7.92,12.65,47.84626,-54.09684
2021-12-05 07:59:00+00:00,253.0731,8.24,12.65,47.84626,-54.09684
2021-12-05 08:09:00+00:00,254.1647,8.2,12.65,47.84626,-54.09684
2021-12-05 08:19:00+00:00,261.4514,8.3,12.57,47.84626,-54.09684
2021-12-05 08:29:00+00:00,267.2847,8.3,12.57,47.84626,-54.09684
2021-12-05 08:39:00+00:00,273.563,8.28,12.57,47.84626,-54.09684
2021-12-05 08:49:00+00:00,278.5797,8.32,12.57,47.84626,-54.09684
2021-12-05 08:59:00+00:00,288.7447,8.41,12.57,47.84626,-54.09684
2021-12-05 09:09:00+00:00,295.9414,8.46,12.57,47.84626,-54.09684
2021-12-05 09:19:00+00:00,300.273,8.4,12.57,47.84626,-54.09684
2021-12-05 09:29:00+00:00,305.1464,8.4,12.57,47.84626,-54.09684
2021-12-05 09:39:00+00:00,317.8047,8.47,12.57,47.84626,-54.09684
2021-12-05 09:49:00+00:00,330.36300000000006,8.5,12.57,47.84626,-54.09684
2021-12-05 09:59:00+00:00,338.6964,8.5,12.57,47.84626,-54.09684
2021-12-05 10:09:00+00:00,345.908,8.5,12.57,47.84626,-54.09684
2021-12-05 10:19:00+00:00,357.2696,8.5,12.57,47.84626,-54.09684
2021-12-05 10:29:00+00:00,366.1296,8.5,12.57,47.84626,-54.09684
2021-12-05 10:39:00+00:00,369.4713,8.5,12.57,47.84626,-54.09684
2021-12-05 10:49:00+00:00,374.5512,8.51,12.57,47.84626,-54.09684
2021-12-05 10:59:00+00:00,383.0479,8.56,12.57,47.84626,-54.09684
2021-12-05 11:09:00+00:00,391.9813,8.55,12.57,47.84626,-54.09684
2021-12-05 11:19:00+00:00,393.8846,8.55,12.57,47.84626,-54.09684
2021-12-05 11:29:00+00:00,396.5295,8.57,12.57,47.84626,-54.09684
2021-12-05 11:39:00+00:00,404.0446,8.58,12.57,47.84626,-54.09684
2021-12-05 11:49:00+00:00,406.7795,8.59,12.57,47.84626,-54.09684
2021-12-05 11:59:00+00:00,407.1462,8.59,12.57,47.84626,-54.09684
2021-12-05 12:09:00+00:00,407.3729,8.59,12.57,47.84626,-54.09684
2021-12-05 12:19:00+00:00,405.9929,8.59,12.57,47.84626,-54.09684
2021-12-05 12:29:00+00:00,402.8412,8.58,12.57,47.84626,-54.09684
2021-12-05 12:39:00+00:00,401.8328,8.58,12.57,47.84626,-54.09684
2021-12-05 12:49:00+00:00,402.9562,8.58,12.57,47.84626,-54.09684
2021-12-05 12:59:00+00:00,399.3595,8.58,12.57,47.84626,-54.09684
2021-12-05 13:09:00+00:00,397.1729,8.59,12.57,47.84626,-54.09684
2021-12-05 13:19:00+00:00,393.9462,8.54,14.4,47.84626,-54.09684
2021-12-05 13:29:00+00:00,389.0446,8.55,14.4,47.84626,-54.09684
2021-12-05 13:39:00+00:00,384.3762,8.58,14.4,47.84626,-54.09684
2021-12-05 13:49:00+00:00,382.483,8.57,14.4,47.84626,-54.09684
2021-12-05 13:59:00+00:00,376.0762,8.57,14.4,47.84626,-54.09684
2021-12-05 14:09:00+00:00,364.0812,8.58,14.4,47.84626,-54.09684
2021-12-05 14:19:00+00:00,356.1413,8.59,14.32,47.84626,-54.09684
2021-12-05 14:29:00+00:00,349.4896,8.59,14.32,47.84626,-54.09684
2021-12-05 14:39:00+00:00,338.4579,8.59,14.32,47.84626,-54.09684
2021-12-05 14:49:00+00:00,327.633,8.59,14.32,47.84626,-54.09684
2021-12-05 14:59:00+00:00,320.823,8.59,14.32,47.84626,-54.09684
2021-12-05 15:09:00+00:00,309.8997,8.5,14.32,47.84626,-54.09684
2021-12-05 15:19:01+00:00,292.7081,8.3,14.8,47.84626,-54.09684
2021-12-05 15:29:01+00:00,281.8114,8.25,14.8,47.84626,-54.09684
2021-12-05 15:39:01+00:00,272.0731,8.2,14.8,47.84626,-54.09684
2021-12-05 15:49:01+00:00,259.8031,8.22,14.8,47.84626,-54.09684
2021-12-05 15:59:01+00:00,248.7247,8.3,14.8,47.84626,-54.09684
2021-12-05 16:09:01+00:00,240.9414,8.37,14.8,47.84626,-54.09684
2021-12-05 16:19:00+00:00,233.6031,8.39,14.4,47.84626,-54.09684
2021-12-05 16:29:00+00:00,221.9881,8.38,14.4,47.84626,-54.09684
2021-12-05 16:39:00+00:00,213.0231,8.3,14.4,47.84626,-54.09684
2021-12-05 16:49:00+00:00,204.2931,8.3,14.4,47.84626,-54.09684
2021-12-05 16:59:00+00:00,193.9081,8.3,14.4,47.84626,-54.09684
2021-12-05 17:09:00+00:00,185.1515,8.23,14.4,47.84626,-54.09684
2021-12-05 17:19:01+00:00,177.6448,8.03,14.64,47.84626,-54.09684
2021-12-05 17:29:01+00:00,170.1382,7.25,14.64,47.84626,-54.09684
2021-12-05 17:39:01+00:00,166.5331,6.7,14.64,47.84626,-54.09684
2021-12-05 17:49:01+00:00,165.1682,6.5,14.64,47.84626,-54.09684
2021-12-05 17:59:01+00:00,164.4448,6.1,14.64,47.84626,-54.09684
2021-12-05 18:09:01+00:00,165.4715,6.03,14.64,47.84626,-54.09684
2021-12-05 18:19:00+00:00,165.1098,6.0,14.4,47.84626,-54.09684
2021-12-05 18:29:00+00:00,164.4431,6.09,14.4,47.84626,-54.09684
2021-12-05 18:39:00+00:00,163.6798,5.9,14.4,47.84626,-54.09684
2021-12-05 18:49:00+00:00,164.8331,5.8,14.4,47.84626,-54.09684
2021-12-05 18:59:00+00:00,168.4332,6.1,14.4,47.84626,-54.09684
2021-12-05 19:09:00+00:00,168.8915,6.18,14.4,47.84626,-54.09684
2021-12-05 19:19:01+00:00,169.9582,6.3,13.68,47.84626,-54.09684
2021-12-05 19:29:01+00:00,173.5081,6.2,13.68,47.84626,-54.09684
2021-12-05 19:39:01+00:00,178.9265,6.0,13.68,47.84626,-54.09684
2021-12-05 19:49:01+00:00,184.2098,6.0,13.68,47.84626,-54.09684
2021-12-05 19:59:01+00:00,184.5115,5.7,13.68,47.84626,-54.09684
2021-12-05 20:09:01+00:00,188.0032,5.6,13.68,47.84626,-54.09684
2021-12-05 20:19:00+00:00,195.7731,5.59,13.29,47.84626,-54.09684
2021-12-05 20:29:00+00:00,195.8932,5.5,13.29,47.84626,-54.09684
2021-12-05 20:39:00+00:00,197.6648,5.44,13.29,47.84626,-54.09684
2021-12-05 20:49:00+00:00,206.2065,5.46,13.29,47.84626,-54.09684
2021-12-05 20:59:00+00:00,213.6581,5.4,13.29,47.84626,-54.09684
2021-12-05 21:09:00+00:00,218.0214,5.39,13.29,47.84626,-54.09684
2021-12-05 21:19:01+00:00,226.7881,5.52,12.97,47.84626,-54.09684
2021-12-05 21:29:01+00:00,237.9564,5.93,12.97,47.84626,-54.09684
2021-12-05 21:39:01+00:00,244.1181,6.88,12.97,47.84626,-54.09684
2021-12-05 21:49:01+00:00,249.6881,6.7,12.97,47.84626,-54.09684
2021-12-05 21:59:01+00:00,259.238,6.7,12.97,47.84626,-54.09684
2021-12-05 22:09:01+00:00,269.0047,6.6,12.97,47.84626,-54.09684
2021-12-05 22:19:01+00:00,277.5764,6.5,12.65,47.84626,-54.09684
2021-12-05 22:29:01+00:00,285.4581,6.4,12.65,47.84626,-54.09684
2021-12-05 22:39:01+00:00,295.8231,6.3,12.65,47.84626,-54.09684
2021-12-05 22:49:01+00:00,304.8881,6.39,12.65,47.84626,-54.09684
2021-12-05 22:59:01+00:00,314.783,6.69,12.65,47.84626,-54.09684
2021-12-05 23:09:01+00:00,322.3497,6.85,12.65,47.84626,-54.09684
2021-12-05 23:19:00+00:00,328.0363,7.0,12.65,47.84626,-54.09684
2021-12-05 23:29:00+00:00,332.0529,6.52,12.65,47.84626,-54.09684
2021-12-05 23:39:00+00:00,337.5547,6.7,12.65,47.84626,-54.09684
2021-12-05 23:49:00+00:00,343.3329,6.95,12.65,47.84626,-54.09684
2021-12-05 23:59:00+00:00,343.6496,6.8,12.65,47.84626,-54.09684
